Date String (YYYY-MM-DD hh:mm:ss) UTC,Instrument flags,absolute air pressure of the measurement (hPa),sample flow rate (lpm),inlet stack bypass flow (lpm),air temperature of the measurement (°C),ambient temperature measured by the external sensor (°C),aerosol sample conditioner tube jacket temperature (°C),OPC LED temperature (°C),internal box temperature (°C),relative humidity of the measurement (%),span deviation,mass concentration of particles derived from Lorenz-Mie calculation of OPC scattering (μg/m³),mass concentration of particles derived from Lorenz-Mie calculation of OPC scattering (μg/m³),mass concentration of particles derived from Lorenz-Mie calculation of OPC scattering (μg/m³)
DateTimeUTC,F1_M11,P_M11,Q1_M11,Q2_M11,T1_M11,T2_M11,T3_M11,T4_M11,T5_M11,U1_M11,ZSPAN_M11,X2_M11,X0_M11,X1_M11
2023-06-14 20:00:00,SystemResetWarning,0825.8,5.00,000.00,029.3,027.7,000.0,037.7,031.0,24.3,0000.0,0003.95,0010.03,0003.37
2023-06-14 20:01:00,SystemResetWarning,0825.8,5.01,000.00,029.3,027.9,000.0,037.7,031.1,24.8,0000.0,0003.95,0010.01,0003.37
2023-06-14 20:02:00,SystemResetWarning,0825.8,5.01,000.00,029.3,028.0,000.0,037.8,031.1,24.6,0000.0,0003.94,0010.14,0003.37
2023-06-14 20:03:00,SystemResetWarning,0825.8,4.98,000.00,029.4,028.1,000.0,037.8,031.2,24.0,0000.0,0003.94,0009.82,0003.36
2023-06-14 20:04:00,SystemResetWarning,0825.8,4.99,000.00,029.4,027.0,000.0,037.8,031.1,25.2,0000.0,0003.94,0009.82,0003.35
2023-06-14 20:05:00,SystemResetWarning,0825.8,5.01,000.00,029.4,025.3,000.0,037.7,031.0,24.6,0000.0,0003.93,0009.15,0003.35
2023-06-14 20:06:00,SystemResetWarning,0825.7,5.01,000.00,029.4,025.2,000.0,037.7,030.9,25.9,0000.0,0003.94,0008.88,0003.35
2023-06-14 20:07:00,SystemResetWarning,0825.7,5.01,000.00,029.3,025.5,000.0,037.7,030.7,25.2,0000.0,0003.91,0008.30,0003.34
2023-06-14 20:08:00,SystemResetWarning,0825.7,4.99,000.00,029.3,025.9,000.0,037.7,030.7,24.3,0000.0,0003.90,0008.25,0003.33
2023-06-14 20:09:00,SystemResetWarning,0825.7,5.00,000.00,029.3,026.3,000.0,037.7,030.8,24.8,0000.0,0003.88,0008.39,0003.32
2023-06-14 20:10:00,SystemResetWarning,0825.7,4.99,000.00,029.3,026.7,000.0,037.7,030.9,24.5,0000.0,0003.85,0008.36,0003.30
2023-06-14 20:11:00,SystemResetWarning,0825.7,5.00,000.00,029.3,027.1,000.0,037.7,031.0,25.3,0000.0,0003.86,0008.26,0003.29
2023-06-14 20:12:00,SystemResetWarning,0825.7,5.01,000.00,029.3,027.3,000.0,037.8,031.0,24.4,0000.0,0003.84,0007.92,0003.29
2023-06-14 20:13:00,SystemResetWarning,0825.7,5.01,000.00,029.3,027.5,000.0,037.8,031.1,23.8,0000.0,0003.83,0007.37,0003.29
2023-06-14 20:14:00,SystemResetWarning,0825.6,4.99,000.00,029.4,027.7,000.0,037.8,031.1,23.7,0000.0,0003.83,0007.42,0003.29
2023-06-14 20:15:00,SystemResetWarning,0825.6,5.00,000.00,029.4,027.9,000.0,037.8,031.1,24.4,0000.0,0003.81,0008.62,0003.29
2023-06-14 20:16:00,SystemResetWarning,0825.6,5.00,000.00,029.4,028.0,000.0,037.8,031.2,24.9,0000.0,0003.80,0008.84,0003.28
2023-06-14 20:17:00,SystemResetWarning,0825.6,5.00,000.00,029.5,028.1,000.0,037.8,031.2,26.6,0000.0,0003.77,0009.89,0003.27
2023-06-14 20:18:00,SystemResetWarning,0825.6,5.00,000.00,029.5,026.6,000.0,037.8,031.2,24.9,0000.0,0003.77,0009.99,0003.26
2023-06-14 20:19:00,SystemResetWarning,0825.6,5.00,000.00,029.5,025.1,000.0,037.8,031.1,24.7,0000.0,0003.78,0010.01,0003.25
2023-06-14 20:20:00,SystemResetWarning,0825.5,5.01,000.00,029.4,025.3,000.0,037.8,031.0,24.4,0000.0,0003.77,0010.30,0003.25
2023-06-14 20:21:00,SystemResetWarning,0825.6,5.00,000.00,029.4,025.6,000.0,037.8,030.8,25.1,0000.0,0003.75,0010.50,0003.25
2023-06-14 20:22:00,SystemResetWarning,0825.5,5.00,000.00,029.3,026.0,000.0,037.8,030.8,24.4,0000.0,0003.73,0010.34,0003.25
2023-06-14 20:23:00,SystemResetWarning,0825.5,5.00,000.00,029.3,026.4,000.0,037.8,030.8,25.6,0000.0,0003.72,0010.35,0003.24
2023-06-14 20:24:00,SystemResetWarning,0825.5,4.99,000.00,029.3,026.8,000.0,037.8,030.9,25.6,0000.0,0003.70,0010.32,0003.22
2023-06-14 20:25:00,SystemResetWarning,0825.5,5.00,000.00,029.4,027.1,000.0,037.8,031.0,25.6,0000.0,0003.67,0010.27,0003.20
2023-06-14 20:26:00,SystemResetWarning,0825.5,5.02,000.00,029.4,027.4,000.0,037.8,031.1,24.3,0000.0,0003.64,0009.35,0003.20
2023-06-14 20:27:00,SystemResetWarning,0825.5,5.00,000.00,029.4,027.6,000.0,037.8,031.1,24.4,0000.0,0003.66,0009.01,0003.20
2023-06-14 20:28:00,SystemResetWarning,0825.5,5.00,000.00,029.5,027.8,000.0,037.9,031.2,24.6,0000.0,0003.69,0008.02,0003.20
2023-06-14 20:29:00,SystemResetWarning,0825.5,5.00,000.00,029.5,028.0,000.0,037.9,031.2,24.3,0000.0,0003.68,0007.94,0003.20
2023-06-14 20:30:00,SystemResetWarning,0825.5,5.00,000.00,029.5,028.1,000.0,037.9,031.3,23.2,0000.0,0003.67,0008.66,0003.20
2023-06-14 20:31:00,SystemResetWarning,0825.4,4.99,000.00,029.6,027.4,000.0,037.9,031.2,24.1,0000.0,0003.67,0008.25,0003.19
2023-06-14 20:32:00,SystemResetWarning,0825.4,5.00,000.00,029.5,025.5,000.0,037.8,031.1,24.1,0000.0,0003.70,0008.08,0003.19
2023-06-14 20:33:00,SystemResetWarning,0825.4,5.01,000.00,029.5,025.2,000.0,037.8,031.0,25.2,0000.0,0003.70,0008.08,0003.19
2023-06-14 20:34:00,SystemResetWarning,0825.4,5.01,000.00,029.4,025.5,000.0,037.8,030.7,26.2,0000.0,0003.70,0008.13,0003.19
2023-06-14 20:35:00,SystemResetWarning,0825.4,4.99,000.00,029.4,025.9,000.0,037.8,030.7,26.6,0000.0,0003.77,0008.55,0003.20
2023-06-14 20:36:00,SystemResetWarning,0825.4,5.01,000.00,029.3,026.3,000.0,037.8,030.8,25.0,0000.0,0003.79,0008.79,0003.20
2023-06-14 20:37:00,SystemResetWarning,0825.4,4.98,000.00,029.4,026.7,000.0,037.8,030.9,24.8,0000.0,0003.80,0008.72,0003.20
2023-06-14 20:38:00,SystemResetWarning,0825.3,5.00,000.00,029.4,027.1,000.0,037.8,031.0,25.3,0000.0,0003.82,0009.08,0003.19
2023-06-14 20:39:00,SystemResetWarning,0825.3,5.01,000.00,029.4,027.3,000.0,037.9,031.1,25.5,0000.0,0003.83,0009.12,0003.19
2023-06-14 20:40:00,SystemResetWarning,0825.3,5.02,000.00,029.4,027.6,000.0,037.9,031.1,26.2,0000.0,0003.83,0009.25,0003.18
2023-06-14 20:41:00,SystemResetWarning,0825.3,4.99,000.00,029.5,027.8,000.0,037.9,031.2,26.1,0000.0,0003.85,0008.90,0003.19
2023-06-14 20:42:00,SystemResetWarning,0825.3,4.99,000.00,029.5,027.9,000.0,037.9,031.3,25.9,0000.0,0003.84,0008.54,0003.20
2023-06-14 20:43:00,SystemResetWarning,0825.4,5.00,000.00,029.5,028.1,000.0,037.9,031.3,23.2,0000.0,0003.84,0008.49,0003.20
2023-06-14 20:44:00,SystemResetWarning,0825.4,5.00,000.00,029.6,027.9,000.0,037.9,031.3,22.9,0000.0,0003.83,0008.54,0003.19
2023-06-14 20:45:00,SystemResetWarning,0825.3,4.99,000.00,029.6,026.0,000.0,037.9,031.2,23.9,0000.0,0003.83,0008.54,0003.18
2023-06-14 20:46:00,SystemResetWarning,0825.3,5.01,000.00,029.5,025.2,000.0,037.9,031.1,23.8,0000.0,0003.78,0008.27,0003.17
2023-06-14 20:47:00,SystemResetWarning,0825.3,5.02,000.00,029.5,025.4,000.0,037.8,030.8,24.3,0000.0,0003.73,0008.18,0003.16
2023-06-14 20:48:00,SystemResetWarning,0825.3,4.99,000.00,029.4,025.8,000.0,037.9,030.8,23.7,0000.0,0003.73,0008.11,0003.17
2023-06-14 20:49:00,SystemResetWarning,0825.2,4.99,000.00,029.4,026.2,000.0,037.9,030.8,25.3,0000.0,0003.70,0007.90,0003.16
2023-06-14 20:50:00,SystemResetWarning,0825.3,5.01,000.00,029.4,026.6,000.0,037.9,030.9,24.9,0000.0,0003.66,0008.00,0003.16
2023-06-14 20:51:00,SystemResetWarning,0825.3,5.01,000.00,029.4,027.0,000.0,037.9,031.0,24.2,0000.0,0003.65,0008.33,0003.17
2023-06-14 20:52:00,SystemResetWarning,0825.2,5.00,000.00,029.4,027.3,000.0,037.9,031.1,23.3,0000.0,0003.66,0008.62,0003.16
2023-06-14 20:53:00,SystemResetWarning,0825.3,4.99,000.00,029.4,027.5,000.0,037.9,031.1,23.4,0000.0,0003.70,0008.72,0003.15
2023-06-14 20:54:00,SystemResetWarning,0825.2,5.00,000.00,029.5,027.7,000.0,037.9,031.2,24.0,0000.0,0003.69,0008.72,0003.13
2023-06-14 20:55:00,SystemResetWarning,0825.2,5.00,000.00,029.5,027.9,000.0,037.9,031.2,25.0,0000.0,0003.71,0008.78,0003.13
2023-06-14 20:56:00,SystemResetWarning,0825.3,5.00,000.00,029.5,028.1,000.0,037.9,031.3,25.9,0000.0,0003.73,0009.25,0003.14
2023-06-14 20:57:00,SystemResetWarning,0825.2,5.00,000.00,029.6,027.6,000.0,037.9,031.3,25.2,0000.0,0003.74,0009.44,0003.15
2023-06-14 20:58:00,SystemResetWarning,0825.2,5.00,000.00,029.6,025.6,000.0,037.9,031.2,25.5,0000.0,0003.73,0009.20,0003.15
2023-06-14 20:59:00,SystemResetWarning,0825.2,5.00,000.00,029.5,025.2,000.0,037.8,031.1,24.6,0000.0,0003.73,0009.07,0003.14
